Location: Gollag?dem
(16.8053°N, 80.8024°E)
Time: 22:47:50
(UTC+00:00)

Hubble Space Telescope - Visible Passes

Search period start: 08 December 2023 00:00
Search period end: 18 December 2023 00:00
Orbit: 518 x 522 km, 28.5° (Epoch: 08 December)

Date Brightness Start Highest point End Pass type
(mag) Time Alt. Az. Time Alt. Az. Time Alt. Az.
08 Dec 3.5 13:22:03 10° WSW 13:24:34 16° SSW 13:27:05 10° S visible
09 Dec 3.7 13:06:18 10° WSW 13:08:06 13° SSW 13:09:54 10° S visible
12 Dec 3.6 00:29:29 10° S 00:31:47 15° SSE 00:34:05 10° ESE visible
13 Dec 3.5 00:12:27 10° SSW 00:15:18 18° SSE 00:18:09 10° ESE visible
13 Dec 3.0 23:55:35 10° SSW 23:58:48 23° SSE 00:02:01 10° E visible
14 Dec 2.6 23:38:48 10° SSW 23:42:18 29° SSE 23:45:49 10° E visible
15 Dec 2.1 23:23:44 21° SSW 23:25:47 36° SSE 23:29:31 10° E visible
16 Dec 1.5 23:09:13 45° SSE 23:09:17 45° SSE 23:13:09 10° E visible
17 Dec 2.5 22:54:30 30° E 22:54:30 30° E 22:56:44 10° ENE visible
